Wind_Speed
15 17 16 15 14 14 15 14 13 12 12 13 17 20 23 26 26 26 30 33 35 39 38 35 32 30 37 41 35 32 33 32 32 32 33 35 35 37 40 43 43 41 38 35 34 36 35 34 31 31 34 34 31 29 28 27 26 26 25 24 23 23 22 21 20 18 18 17 15 13 12 10 9 9 9 9 9 9 8 7 6 5 5 5 5
13 15 16 17 16 16 16 16 15 14 14 16 17 20 22 24 25 25 31 35 34 37 39 39 35 25 28 38 37 36 36 34 33 32 32 32 32 33 35 38 40 41 40 38 39 40 38 35 32 33 37 36 33 33 31 29 28 27 26 25 24 24 24 22 21 21 19 18 16 15 14 12 11 10 10 10 9 9 9 8 7 6 5 5 5
10 12 13 15 16 17 17 17 17 16 16 18 19 20 20 23 24 25 31 35 33 35 36 38 38 27 22 28 33 35 35 35 34 32 31 31 32 33 32 33 35 36 36 37 39 39 37 35 34 36 40 38 35 34 32 30 28 27 26 26 25 25 25 23 22 22 21 19 18 16 15 14 12 11 11 11 10 10 9 9 8 7 6 6 6
7 8 10 12 14 15 16 17 18 17 18 19 20 20 20 22 24 26 31 34 34 37 37 36 37 32 26 25 27 29 31 32 31 29 30 30 30 31 31 31 32 34 34 34 35 36 37 37 37 38 41 39 35 34 32 30 29 27 27 27 27 26 25 24 23 22 22 21 19 17 16 15 13 12 11 10 10 10 10 10 10 9 8 7 6
7 7 8 11 12 13 14 16 18 18 18 20 21 21 20 22 23 26 31 34 36 39 41 41 38 34 32 30 28 26 26 28 27 26 27 29 29 29 30 30 30 32 34 33 34 37 38 38 38 40 42 39 36 34 32 31 30 28 28 27 27 26 25 24 23 21 21 21 20 18 17 16 14 13 12 11 11 10 10 11 11 11 10 9 7
9 7 8 11 12 12 13 14 17 17 18 19 21 21 21 21 22 25 30 33 37 40 41 43 41 36 34 34 32 29 26 27 29 28 28 28 28 28 30 31 31 32 34 34 36 38 37 37 37 40 43 41 37 36 34 32 31 30 29 28 27 27 26 25 23 22 21 21 21 20 18 17 15 14 13 12 12 11 10 10 11 12 11 10 9
9 8 9 11 13 13 13 14 16 17 18 18 19 20 21 22 21 24 29 32 35 38 38 39 39 37 37 34 31 29 29 28 26 27 30 30 28 27 27 29 30 32 34 35 37 36 35 35 36 40 44 41 38 37 34 33 32 32 31 30 29 28 26 25 24 23 22 21 21 20 20 18 17 16 15 13 13 12 10 10 10 11 11 11 10
8 8 9 11 12 13 13 14 15 16 17 18 18 19 20 21 21 22 29 33 34 35 36 37 37 37 37 37 32 28 28 28 23 20 25 30 29 26 26 27 28 31 34 35 36 37 35 35 36 38 40 37 35 34 33 32 32 32 31 31 30 28 27 26 26 26 24 23 22 21 21 20 19 18 17 15 14 13 12 10 10 10 11 11 11
7 7 8 10 12 13 13 13 14 14 15 17 17 17 18 20 21 22 27 33 35 35 36 36 38 38 37 38 38 34 30 31 28 22 19 23 25 25 25 26 27 30 33 34 35 38 38 37 36 37 36 35 34 32 32 32 32 31 31 31 30 29 29 28 27 27 26 25 24 23 22 21 20 19 18 17 16 14 13 12 10 10 10 11 11
6 6 8 9 11 13 13 14 14 14 14 15 16 16 17 18 19 21 25 32 36 36 36 36 37 38 37 37 39 39 35 33 32 28 22 19 20 22 23 26 28 30 33 34 34 37 40 39 37 37 38 37 35 33 33 33 32 32 32 32 31 30 30 28 27 27 28 28 27 25 23 22 21 21 20 19 18 16 15 13 11 10 10 10 11
5 7 9 11 13 14 14 15 16 16 14 14 16 15 15 16 18 19 23 31 37 37 36 35 36 36 36 36 37 37 35 33 32 31 28 24 22 21 20 23 29 32 34 34 33 36 39 40 38 38 39 38 36 36 35 34 33 33 32 32 31 31 30 29 29 28 29 29 28 26 24 23 23 22 21 21 19 18 17 15 13 12 11 11 10
7 9 11 13 15 16 17 16 16 17 16 15 15 15 13 13 15 17 20 27 35 39 37 36 36 35 35 36 36 34 33 32 31 31 29 28 28 26 22 22 28 34 36 36 35 35 37 37 37 37 38 39 39 38 37 36 35 35 34 33 32 32 32 31 30 30 30 30 29 27 26 25 24 23 23 22 20 19 18 17 15 14 13 12 11
11 14 16 17 17 19 20 19 17 17 18 17 16 15 13 12 12 14 17 23 32 38 39 37 37 36 35 35 36 35 33 31 30 30 29 30 31 30 26 23 26 34 38 39 38 37 37 36 34 35 38 42 42 40 39 37 37 36 36 36 34 34 34 32 31 31 31 31 30 29 29 27 24 24 24 23 21 20 19 18 16 15 14 13 12
16 19 20 19 19 19 19 20 19 17 18 18 17 15 14 12 11 11 14 20 28 35 39 38 38 37 36 35 35 35 34 32 31 30 30 31 31 30 27 24 26 33 39 41 41 40 40 37 35 35 39 42 43 41 40 38 38 37 37 37 36 35 35 33 32 32 32 32 32 31 30 28 26 26 25 23 22 21 21 20 17 16 15 14 13
21 22 21 19 18 17 18 19 20 19 17 17 17 16 16 14 12 11 12 16 23 31 36 38 38 38 37 36 35 35 34 33 32 31 30 30 29 27 26 24 25 32 39 41 42 42 40 37 36 37 39 41 42 41 40 39 39 38 38 37 37 36 34 32 31 32 32 33 34 33 30 29 28 27 25 24 23 24 24 22 18 17 16 15 15
22 21 19 20 19 18 17 18 19 20 17 16 16 17 17 16 14 12 11 13 19 26 33 36 37 37 37 36 35 35 34 33 33 32 31 29 27 26 26 24 23 28 37 42 43 42 40 38 37 37 39 41 42 42 41 40 40 40 39 38 37 35 32 30 29 30 31 34 36 34 32 31 30 28 26 25 25 25 25 23 19 18 18 17 16
21 19 20 21 22 21 20 18 18 20 19 17 17 18 18 17 16 14 12 12 15 21 28 33 36 37 37 36 36 35 35 34 34 33 32 30 28 27 27 27 24 25 31 38 41 41 40 38 38 38 40 41 42 43 42 41 41 41 39 37 35 33 31 30 29 29 31 35 37 36 34 33 32 29 26 25 26 27 27 24 21 21 20 19 18
21 20 22 23 23 23 22 21 18 19 20 19 18 18 17 17 17 16 15 13 14 17 23 29 34 37 37 37 37 36 36 36 35 34 33 31 30 29 29 29 29 27 27 30 35 39 39 39 38 39 41 42 43 43 42 41 41 40 38 36 35 34 32 30 30 29 30 34 36 36 34 33 32 29 26 26 27 28 29 26 24 23 23 21 20
20 19 20 21 22 23 23 22 20 18 18 20 20 18 17 17 17 17 17 16 14 15 19 25 31 35 38 38 38 38 37 37 36 36 35 33 32 31 31 31 31 31 30 29 31 35 38 39 39 40 42 43 44 43 42 42 42 41 39 37 36 35 33 32 31 29 29 30 31 32 32 32 31 29 27 27 28 29 30 29 27 25 24 23 22
17 17 18 20 22 22 22 22 21 19 17 19 21 20 18 18 18 18 18 18 17 17 17 21 27 32 36 38 39 39 38 38 37 37 36 35 34 33 33 33 33 33 33 31 30 32 36 38 39 40 42 43 45 45 43 43 44 42 40 38 37 36 36 36 36 34 31 29 28 29 30 31 32 31 29 28 29 30 31 31 30 28 27 25 24
17 17 18 20 22 23 23 22 22 20 18 17 19 21 21 19 19 19 19 19 19 19 19 20 23 28 33 37 40 41 40 40 39 38 38 37 36 36 35 35 35 35 34 34 32 32 34 37 39 40 42 44 45 45 44 44 43 40 37 37 37 38 38 40 41 38 33 30 29 30 31 32 33 32 30 29 29 31 32 32 31 30 29 28 26
18 18 19 21 22 23 23 23 22 21 20 18 18 20 22 21 21 20 20 20 20 20 21 21 21 23 28 34 39 41 42 42 41 41 40 39 38 38 37 37 37 36 36 35 34 33 34 37 40 42 43 45 46 45 44 43 41 36 34 35 38 40 39 40 41 38 34 32 32 31 32 33 33 32 30 30 29 30 32 33 33 32 31 31 29
19 19 20 21 22 23 23 23 23 22 22 20 18 19 21 23 23 23 22 22 21 21 21 22 22 22 23 27 32 38 42 43 43 43 42 42 41 40 40 39 39 38 38 37 36 35 34 36 41 43 46 48 49 47 45 43 39 35 34 36 40 42 41 41 41 37 33 33 34 34 35 35 34 33 31 30 30 30 31 32 33 34 33 33 33
20 21 21 21 22 22 23 24 24 24 23 22 21 19 20 22 24 24 24 24 24 23 21 21 22 22 22 23 25 30 35 40 44 45 44 44 43 43 42 42 41 40 40 39 37 36 35 36 39 43 48 51 52 49 48 44 37 34 35 37 42 47 45 43 42 38 35 36 36 36 37 37 36 34 32 31 31 31 31 31 33 35 36 36 36
21 22 21 21 21 22 23 25 25 26 25 24 23 21 20 21 24 25 26 26 26 25 23 22 22 22 23 24 24 25 27 32 37 42 45 46 45 45 44 44 44 43 42 42 40 38 37 36 38 43 50 54 54 52 51 45 37 34 35 37 43 48 47 45 44 41 38 39 39 38 38 38 37 35 33 33 32 32 32 32 33 34 37 38 39
22 22 21 21 21 21 23 24 25 26 26 26 24 22 21 21 23 25 27 28 27 26 25 24 23 23 23 24 25 25 26 27 29 33 38 42 45 46 46 46 46 45 45 44 43 42 40 38 38 43 52 57 57 57 56 49 40 36 36 36 39 45 47 45 43 40 39 41 42 41 39 37 37 35 34 34 34 34 34 34 34 35 36 39 42
22 22 22 21 21 21 23 24 24 25 25 25 24 22 22 22 22 24 26 28 28 28 27 27 26 25 25 24 25 26 27 27 28 29 30 33 37 41 44 46 47 47 46 46 45 44 43 41 40 43 51 58 60 60 59 54 47 43 42 40 38 42 47 47 44 40 40 42 42 42 41 38 36 35 35 35 35 36 36 35 36 36 38 40 42
22 22 22 22 21 21 23 24 24 24 24 24 24 22 21 22 22 22 24 26 28 29 29 28 28 28 27 27 27 27 27 28 29 30 31 31 32 34 37 40 43 46 47 48 48 47 46 45 44 45 50 56 60 61 61 59 55 53 52 48 44 44 47 49 49 47 45 44 42 41 41 40 38 36 36 37 37 37 37 37 37 38 40 41 42
22 22 22 22 21 21 22 23 22 22 23 23 23 21 20 21 21 21 21 24 26 28 29 29 29 30 30 29 29 29 29 29 30 31 32 33 33 34 35 36 37 40 42 45 47 49 49 49 49 49 51 55 58 60 61 62 61 60 58 55 52 50 49 51 52 51 50 48 44 43 42 42 42 41 40 39 39 39 39 38 38 40 41 41 42
22 22 22 22 22 21 21 21 20 20 21 22 21 20 19 20 20 20 20 21 23 25 26 28 29 29 30 31 31 31 31 32 32 32 33 34 35 36 37 37 38 38 39 41 43 46 48 51 52 53 55 56 58 59 60 61 62 62 61 60 57 54 53 54 55 55 55 52 48 46 45 44 45 45 45 44 42 42 41 40 41 42 42 42 42
21 22 22 22 22 22 20 19 19 19 19 20 19 18 18 18 18 19 18 19 20 21 23 25 26 27 29 30 31 32 32 33 34 34 35 35 36 37 38 39 41 42 42 42 42 43 45 47 50 53 56 58 59 61 62 63 64 63 63 63 61 58 56 57 58 59 59 57 53 50 49 47 47 48 48 47 46 46 45 43 43 44 44 43 43
21 22 22 21 21 21 19 18 18 18 18 18 19 17 16 16 16 17 17 17 17 18 19 21 22 23 24 25 27 28 29 31 32 33 34 35 36 37 39 40 41 42 44 45 45 45 46 46 48 49 52 54 57 59 61 63 65 66 66 66 65 63 61 61 61 61 61 60 58 56 52 50 49 50 50 50 50 50 50 48 48 47 46 46 45
21 22 22 20 20 20 19 19 18 18 17 17 17 17 15 14 15 16 16 15 15 16 17 18 19 20 21 21 22 23 25 27 28 29 31 33 34 36 37 39 40 41 43 44 46 47 48 49 50 50 51 52 53 55 57 59 61 63 66 68 69 68 67 66 65 64 63 63 62 60 57 54 53 53 54 54 53 53 53 53 52 51 50 48 47
21 22 21 20 19 19 19 19 18 17 17 17 17 16 15 14 14 15 16 16 16 16 17 17 18 19 19 20 21 22 23 25 26 27 29 31 33 34 36 38 39 41 42 44 45 47 48 50 51 52 53 54 54 55 56 57 58 60 62 65 68 69 70 71 69 68 67 66 65 63 62 60 57 55 55 56 56 56 57 57 56 55 53 51 50
21 22 21 19 18 18 19 19 19 18 17 18 18 17 16 14 14 15 16 17 17 17 17 18 18 19 19 20 21 22 24 25 27 28 30 32 34 35 36 37 39 41 42 44 46 47 49 51 52 54 55 56 57 58 58 59 59 60 61 64 65 66 67 70 71 72 72 70 68 66 65 64 62 59 59 59 59 59 60 60 60 59 58 55 54
21 21 20 18 17 18 18 19 18 18 17 17 18 19 18 16 14 15 16 17 17 17 17 17 17 17 18 18 19 21 22 24 26 27 29 32 34 36 38 39 40 41 43 45 46 48 50 52 54 55 57 57 58 60 61 61 62 63 64 65 66 65 64 66 68 70 72 72 71 69 67 65 64 65 65 63 61 61 63 63 63 62 61 60 57
19 20 19 18 17 17 18 18 18 18 17 18 18 19 20 19 15 14 15 17 17 17 16 16 16 15 15 16 17 18 20 21 22 23 25 27 30 32 35 37 38 40 41 43 45 47 49 51 53 55 57 59 60 61 61 62 63 65 66 67 67 66 66 66 66 66 67 69 68 68 68 67 66 67 68 68 65 64 64 65 65 65 64 63 61
19 19 19 19 18 17 17 18 18 18 18 18 19 20 21 19 15 12 13 14 15 16 15 15 14 14 14 15 15 16 17 17 18 19 20 22 24 26 28 30 32 34 35 37 38 40 43 46 50 53 56 58 61 62 63 63 63 65 66 67 68 67 67 68 68 67 67 67 66 65 66 66 66 66 67 68 69 68 65 65 66 66 65 65 64
18 20 20 19 18 17 17 18 19 18 18 19 20 20 21 19 14 11 10 11 12 14 14 13 13 13 13 13 13 13 14 14 15 16 18 19 20 22 24 26 27 28 29 30 31 32 34 37 41 45 49 53 57 60 63 65 64 64 65 66 68 68 68 69 70 69 69 69 68 66 64 63 64 65 65 66 70 70 67 64 65 66 66 65 65
18 19 20 19 17 17 17 17 19 19 19 20 20 21 21 18 13 10 8 8 10 11 11 11 11 11 12 12 12 12 12 13 14 14 16 17 17 17 18 21 23 25 26 27 27 28 29 30 32 35 39 44 50 55 60 64 65 64 64 65 67 68 68 68 70 71 71 70 68 67 65 63 63 63 63 65 68 71 69 64 62 62 64 66 67
17 18 19 19 17 16 16 17 18 18 19 20 21 21 21 18 13 10 8 7 8 9 10 10 10 10 10 11 11 12 13 14 14 14 14 15 14 14 15 16 18 20 22 23 25 26 27 28 29 30 32 35 40 46 53 59 63 65 65 64 65 66 67 68 69 71 72 72 70 68 66 66 65 64 62 61 63 67 70 69 66 62 62 65 70
16 17 18 17 17 16 15 16 18 19 19 20 21 21 20 17 14 11 8 7 7 8 9 10 10 9 9 10 11 12 13 13 14 14 14 14 14 14 14 14 15 16 17 19 20 21 22 24 26 28 29 29 31 36 43 51 57 62 65 66 64 63 64 67 68 69 70 71 71 71 69 68 69 68 66 63 61 61 65 69 70 68 64 64 70
16 16 16 16 16 15 15 15 17 18 18 19 20 21 19 17 14 12 10 9 8 8 9 10 10 10 9 10 11 12 13 13 14 15 15 14 14 15 15 16 16 17 17 17 18 18 19 20 22 24 26 26 27 29 34 41 48 54 60 64 64 63 63 65 66 66 67 67 68 70 70 69 71 72 71 70 67 63 63 65 67 69 66 62 65
16 15 15 15 14 14 14 14 15 17 17 18 19 20 19 16 14 12 11 10 9 10 10 11 12 12 12 12 13 14 14 14 15 16 16 16 16 17 17 18 18 18 18 17 17 17 18 19 21 22 24 26 27 28 28 32 38 44 51 56 59 60 61 62 63 62 63 64 64 65 66 68 70 72 73 74 73 68 65 63 64 67 67 62 60
16 15 14 15 14 13 13 13 14 15 16 17 18 19 19 16 14 13 12 11 9 10 11 12 14 15 15 15 15 15 15 15 15 16 17 17 17 18 19 19 20 19 18 17 17 17 17 19 20 21 22 24 26 27 27 27 30 34 40 45 50 54 56 58 59 58 59 61 61 62 64 65 68 70 73 75 76 72 68 66 64 65 69 66 60
15 14 14 14 13 12 12 12 13 14 15 15 16 17 18 16 15 13 12 11 10 9 9 11 13 14 15 15 15 15 14 14 15 16 17 18 18 18 18 19 19 20 19 18 17 17 17 18 19 21 21 22 23 24 25 25 26 28 31 36 41 46 50 54 56 56 57 58 58 59 61 63 65 69 71 73 74 74 72 71 67 65 67 66 60
15 14 13 13 13 12 12 12 12 13 14 14 14 15 16 16 15 13 11 11 10 9 8 9 10 11 12 13 13 13 13 13 14 14 16 17 17 17 17 17 17 17 18 18 18 17 17 18 18 19 20 21 21 22 23 24 25 27 29 32 35 40 45 48 51 53 56 57 56 55 56 58 61 66 68 69 71 72 74 74 71 68 67 65 61
15 14 12 12 13 12 12 12 12 13 13 13 13 13 14 14 14 13 12 11 10 9 9 9 9 10 10 11 11 11 11 12 12 12 13 14 15 15 15 15 14 14 15 16 16 16 16 17 17 18 19 19 20 21 22 23 24 26 29 31 33 36 40 43 46 48 51 53 53 51 51 52 54 59 64 66 67 69 71 73 73 70 68 67 64
16 15 13 12 12 13 12 13 13 13 13 13 12 12 12 12 12 12 11 11 11 10 10 10 10 10 10 10 11 11 10 10 10 10 11 12 13 14 14 13 13 13 13 14 14 14 15 15 15 16 17 18 19 19 20 21 22 24 27 30 32 34 36 39 42 44 46 48 50 50 50 49 49 52 57 60 63 66 68 69 71 71 70 68 67
17 16 14 12 12 13 13 13 13 13 13 13 13 12 12 11 11 11 11 10 10 10 11 11 11 10 10 10 10 10 10 10 9 9 9 10 11 12 12 12 12 12 12 12 12 13 13 13 13 14 15 16 18 19 19 19 20 22 24 27 30 32 35 37 40 42 43 45 47 48 49 48 48 49 52 55 59 63 65 66 67 68 69 68 65
18 17 15 14 13 13 13 13 14 14 14 13 13 13 13 12 12 12 12 11 11 10 10 10 10 11 11 10 10 10 10 10 9 9 9 9 10 11 12 12 11 11 11 11 11 11 12 12 12 12 12 14 16 17 18 19 20 21 22 24 26 29 32 35 37 38 40 41 42 43 45 46 47 48 49 50 52 55 60 63 65 65 65 65 64
Wind_Direction
269 271 277 279 276 272 270 270 264 261 257 257 258 253 251 248 243 235 231 236 237 236 238 235 236 236 218 210 209 211 213 211 209 213 218 222 223 221 219 218 217 219 223 226 226 227 227 230 234 235 232 220 210 209 209 208 211 214 218 222 225 224 219 212 207 205 203 203 204 203 203 204 205 208 214 216 211 204 202 198 189 182 176 165 147
278 278 282 284 282 277 273 272 269 264 258 256 259 259 256 250 242 233 230 234 236 235 238 236 236 235 216 210 209 208 207 204 204 211 217 221 225 225 224 222 219 219 222 226 229 229 226 227 231 234 230 219 210 210 208 207 210 214 217 220 224 227 224 218 212 208 206 206 205 203 202 204 206 208 211 217 217 211 209 206 201 200 192 182 168
282 283 286 287 285 282 278 277 274 270 264 259 259 259 257 252 241 229 228 231 233 235 238 238 236 234 221 214 211 209 209 205 206 213 217 222 228 228 228 228 224 220 222 227 230 229 225 225 228 231 229 218 211 211 210 209 212 216 219 220 223 226 226 223 217 211 207 206 206 204 202 203 207 210 211 215 219 217 213 208 203 205 205 197 187
296 295 294 290 286 286 284 283 280 275 271 265 263 262 257 253 243 228 225 227 228 232 234 232 231 233 232 225 218 216 216 213 210 211 214 221 226 227 228 230 229 225 224 228 228 224 223 223 226 228 225 216 210 212 212 211 212 216 221 223 224 226 227 227 223 217 211 207 205 204 205 205 207 212 212 216 221 219 212 208 206 209 212 209 205
307 313 302 292 289 291 291 288 285 280 275 270 268 268 262 256 248 232 225 223 225 228 230 229 230 235 235 231 228 224 221 218 216 216 220 224 226 229 232 232 232 230 226 227 226 224 223 224 225 226 220 211 207 211 212 213 214 216 220 223 225 226 227 228 227 223 218 212 205 204 208 208 208 212 212 215 223 221 213 210 211 212 212 213 215
301 307 300 298 298 301 301 298 293 286 279 275 272 271 267 261 253 238 226 222 224 226 229 232 235 238 237 234 234 231 225 221 219 222 227 228 227 229 232 233 235 232 224 224 226 226 225 224 225 223 215 206 205 209 212 214 216 216 218 220 223 226 227 229 229 226 223 218 210 206 208 209 210 213 213 213 219 222 216 212 213 213 214 215 215
298 295 291 298 305 311 313 309 302 294 286 281 278 275 271 265 257 242 228 221 222 225 227 230 233 235 236 236 234 232 230 222 214 221 226 225 224 226 229 233 236 230 221 221 225 226 225 223 221 218 213 206 204 208 210 212 214 215 217 219 221 225 225 226 227 227 224 223 217 210 209 209 210 214 214 212 214 218 218 213 213 213 214 215 215
301 298 294 298 304 309 313 312 306 299 292 286 281 277 272 267 261 246 230 221 219 222 223 225 228 231 232 232 231 230 228 221 216 226 226 220 221 226 228 231 232 224 217 220 224 225 222 216 212 211 210 207 205 207 211 214 216 216 217 217 219 223 224 222 224 225 224 223 222 216 211 209 209 213 216 215 214 216 216 213 211 211 210 213 215
323 315 305 299 297 300 303 303 301 299 295 289 284 278 273 267 262 251 234 222 217 219 220 220 223 226 229 230 233 236 235 229 231 237 228 218 221 225 225 226 226 220 215 217 220 220 216 209 207 207 208 209 209 209 214 218 220 220 219 217 217 220 222 221 222 225 223 222 222 221 217 211 208 211 214 217 216 213 212 210 207 208 210 210 212
341 322 313 307 302 302 300 296 292 290 289 287 284 278 271 266 261 253 239 225 218 218 220 219 221 223 225 228 232 237 239 237 237 236 233 230 227 226 226 226 225 222 218 215 215 214 212 209 209 210 212 213 213 213 217 220 222 221 220 219 219 221 223 222 223 224 224 221 220 221 221 217 212 211 212 217 217 211 208 206 202 202 209 211 209
312 311 317 315 310 306 299 294 289 285 283 283 282 279 273 265 260 254 243 228 219 218 219 218 219 221 222 225 229 233 236 237 237 236 237 240 238 236 237 231 225 222 219 216 212 211 210 210 210 212 214 216 216 216 218 220 222 223 222 221 221 223 225 224 223 224 226 224 221 220 221 220 217 214 215 218 218 212 209 205 198 197 202 207 208
295 309 314 310 307 303 297 293 287 282 281 281 281 282 279 271 261 253 246 233 222 219 219 217 217 219 220 223 227 230 233 235 236 236 237 240 241 244 248 243 230 222 218 216 214 212 210 208 208 210 214 217 218 217 217 219 222 223 224 224 222 220 221 223 223 224 228 228 224 220 220 221 219 218 218 219 217 213 212 206 199 197 198 200 204
304 315 316 310 304 300 296 292 287 281 279 280 282 283 283 277 266 253 245 237 226 220 219 217 216 217 218 220 224 227 230 231 234 234 233 236 240 243 249 251 237 223 219 218 218 217 213 209 208 210 214 217 217 216 216 219 222 224 226 227 225 219 217 218 219 222 226 229 225 219 220 220 218 219 220 219 219 216 213 208 202 200 199 197 201
312 318 317 310 300 293 288 286 285 281 275 275 278 279 279 277 270 256 243 237 230 224 220 217 216 216 216 217 220 223 226 228 229 230 231 234 239 241 247 252 240 225 220 219 219 218 214 213 215 214 214 216 217 218 219 221 223 225 227 228 227 222 218 217 218 220 224 228 228 221 219 220 219 220 221 220 221 218 214 210 204 204 203 200 203
317 320 318 311 301 292 285 281 280 278 271 266 267 268 270 271 270 262 246 236 231 227 223 220 217 216 215 215 217 220 223 225 226 228 230 233 237 238 242 248 239 225 221 219 218 217 216 219 222 220 218 218 219 219 221 222 224 225 226 227 226 223 222 222 223 223 224 227 229 224 218 218 219 220 221 222 221 218 216 213 207 206 207 206 207
322 323 323 319 312 307 301 291 283 277 270 261 256 255 257 261 264 261 252 238 230 227 225 223 220 217 215 214 214 217 221 224 225 227 229 230 233 234 236 240 236 224 221 220 218 218 221 224 223 223 222 222 221 221 222 223 224 224 224 224 223 221 221 224 227 229 227 225 226 225 219 217 217 217 219 223 222 217 215 214 211 211 211 209 209
326 329 331 326 320 317 315 307 292 279 271 263 255 249 248 250 253 254 251 242 230 223 222 223 222 219 216 213 213 214 217 221 223 225 228 228 229 229 229 232 230 224 221 220 219 221 224 225 223 223 225 225 224 223 221 220 220 220 220 219 220 220 220 224 229 231 229 224 222 222 220 217 216 215 218 223 222 218 216 215 213 214 215 212 210
329 333 331 323 318 319 318 314 303 285 273 266 258 250 245 243 244 245 245 242 234 224 219 218 220 220 217 214 212 213 215 218 221 223 226 226 227 227 227 228 227 226 224 224 224 224 225 226 225 225 227 226 224 223 220 218 217 216 216 216 218 219 220 224 227 228 227 222 218 218 218 218 217 216 218 220 220 219 218 218 216 216 219 217 214
326 325 319 313 313 319 320 317 310 296 279 267 260 254 246 240 238 239 239 237 234 228 220 215 216 218 218 215 212 212 214 216 218 221 224 225 225 226 227 227 227 226 226 228 229 228 227 226 226 226 227 224 221 221 219 215 213 212 212 215 218 220 220 221 224 223 220 216 213 214 218 222 223 221 219 219 220 220 221 222 221 218 221 222 221
317 314 311 311 314 320 322 320 316 307 291 273 262 256 248 241 237 235 236 234 231 229 225 218 215 215 216 216 214 212 212 214 217 219 222 223 224 225 226 228 228 227 227 228 230 231 229 226 225 226 225 221 219 220 217 210 208 209 211 215 218 220 220 222 222 218 213 207 206 211 219 226 229 228 223 221 221 222 223 225 225 221 220 223 225
312 313 316 314 316 320 321 322 321 315 304 285 269 258 250 242 236 233 233 232 230 228 227 224 219 216 215 215 215 214 213 213 215 218 220 222 222 224 225 228 229 230 229 228 229 231 230 226 224 224 222 220 219 218 213 208 207 209 212 215 217 220 222 223 222 217 210 205 204 210 217 223 228 229 228 226 226 227 227 228 228 225 221 222 225
312 317 319 317 318 319 321 323 324 321 314 299 280 264 254 246 238 233 231 230 228 226 226 226 224 220 218 216 216 215 214 214 215 217 219 220 222 223 225 227 229 230 231 230 229 230 231 228 225 224 224 221 217 214 211 211 211 213 216 218 219 220 221 225 224 219 212 207 205 208 214 219 223 225 227 228 229 232 233 233 232 230 225 222 224
315 319 318 317 317 318 320 323 324 324 320 310 294 274 260 250 242 235 230 229 228 225 224 226 226 224 222 220 219 218 217 216 217 218 219 220 221 223 224 226 228 230 232 232 230 230 231 230 226 226 226 219 212 210 212 212 212 214 220 224 224 223 224 229 229 223 218 216 212 211 213 218 222 223 225 228 231 233 234 235 236 236 233 228 226
317 317 316 315 316 318 320 322 323 324 322 316 305 288 269 255 246 239 233 230 229 227 225 224 226 227 225 223 223 222 221 220 219 220 220 221 222 223 225 227 228 229 231 233 232 231 232 231 227 226 224 216 209 211 211 210 214 223 229 232 231 228 228 230 228 224 222 222 220 217 216 218 221 224 226 228 232 235 237 237 237 238 238 236 233
315 313 315 315 316 319 320 321 321 321 320 318 310 296 280 263 251 243 236 231 228 228 227 225 226 228 228 227 225 224 224 224 223 223 222 222 223 223 224 226 228 230 231 232 233 232 232 232 227 223 219 214 211 213 213 214 222 231 236 239 237 231 229 228 226 225 225 225 225 224 222 220 221 223 225 228 231 236 239 241 240 238 238 239 239
311 311 313 314 317 319 319 319 318 317 316 315 310 299 285 270 256 247 240 234 230 227 227 228 228 229 230 230 229 227 226 226 226 226 226 225 225 225 226 226 227 229 230 232 233 232 232 232 227 221 217 216 215 216 217 220 227 234 239 243 240 231 227 226 225 226 229 230 230 229 229 228 225 224 225 227 230 233 238 242 244 244 241 239 239
308 311 313 315 317 318 318 317 315 314 314 314 311 302 288 276 264 252 244 238 234 230 228 229 229 230 230 231 232 232 230 228 228 228 229 228 228 228 228 229 229 229 230 231 232 232 231 231 228 222 219 219 219 220 221 223 227 237 244 245 240 232 228 229 230 231 234 235 234 234 236 236 234 232 230 229 230 232 235 239 243 246 247 245 241
309 312 314 316 317 317 317 315 313 314 315 315 312 304 292 282 273 261 250 243 238 235 232 230 230 231 232 232 233 234 234 233 231 230 230 230 230 230 230 231 231 231 231 232 232 232 231 229 228 224 222 222 223 225 227 229 233 240 245 244 242 237 234 236 239 238 237 237 234 234 237 238 237 237 236 234 233 233 234 237 240 243 247 249 247
311 313 314 315 316 316 314 312 312 315 318 318 312 303 294 286 279 271 258 248 242 239 236 233 232 232 233 233 234 235 236 236 235 234 233 232 232 232 232 232 232 232 232 232 232 232 232 230 229 227 226 226 226 228 230 233 236 240 243 244 243 241 238 238 240 240 240 240 237 233 234 236 236 236 239 239 238 236 236 236 238 241 244 248 250
309 311 313 314 315 313 311 311 314 317 319 320 313 302 292 286 281 275 266 253 245 241 239 237 234 233 234 234 235 236 236 237 238 238 237 236 235 235 234 234 234 234 234 233 233 233 232 232 231 230 229 229 230 230 231 233 235 237 239 241 242 241 239 237 237 239 240 241 240 237 234 234 234 234 236 239 241 241 239 237 237 240 242 245 247
307 309 312 314 312 310 310 314 317 319 321 321 316 304 291 283 277 272 266 257 248 242 240 238 237 236 235 235 235 236 236 237 238 238 239 240 239 238 237 236 235 235 235 235 234 234 233 233 233 232 232 232 233 234 234 235 236 238 239 240 240 240 239 237 236 237 238 239 240 240 239 237 237 237 236 237 240 242 242 241 239 240 241 243 244
306 307 309 310 308 308 312 318 320 319 320 321 320 311 295 280 271 265 261 256 249 244 240 239 238 238 237 236 236 236 236 237 237 237 238 239 240 241 241 240 239 237 236 236 236 236 235 235 235 235 235 234 235 236 236 236 237 239 240 240 240 239 239 238 237 237 238 238 239 240 240 238 238 240 240 239 240 241 242 242 241 240 241 242 243
303 305 306 306 305 309 316 320 320 318 318 319 321 318 305 284 267 258 254 249 244 241 239 238 237 238 238 239 239 240 240 240 240 240 239 238 237 238 240 241 241 240 239 238 238 238 238 237 237 237 237 236 236 237 238 238 238 239 240 240 240 239 238 238 238 238 237 238 238 239 240 237 236 239 241 241 241 241 242 243 242 241 242 242 242
301 303 304 305 308 313 318 319 318 318 318 318 319 321 316 297 272 256 248 242 237 235 235 234 234 235 236 238 240 242 243 244 245 246 246 245 243 241 239 239 240 241 241 240 239 239 239 239 240 239 239 238 238 238 239 239 239 238 239 240 239 238 238 237 238 238 238 238 238 239 240 239 237 238 240 241 242 242 242 243 243 242 242 242 242
300 302 304 308 314 317 317 317 318 318 318 319 319 320 320 309 286 264 251 241 235 233 233 233 234 235 237 240 242 244 245 246 247 247 248 249 249 249 247 245 243 243 242 242 241 240 240 240 240 240 241 240 240 239 239 240 239 238 238 240 240 239 238 238 238 238 239 239 239 239 240 239 239 240 240 241 243 244 243 242 243 243 242 242 241
298 302 306 312 316 316 314 315 316 317 320 321 320 318 319 316 299 275 259 248 240 236 236 237 239 241 243 246 248 249 250 250 251 251 251 250 250 251 251 250 249 248 247 246 246 245 244 243 242 241 241 241 241 241 240 240 241 240 239 239 239 240 240 239 239 238 239 240 240 240 239 238 239 241 240 239 241 244 243 241 241 242 243 242 242
300 305 310 314 315 314 314 315 316 319 323 323 320 318 320 319 307 283 263 253 247 243 240 241 244 246 250 254 257 258 258 259 258 258 257 255 253 252 251 251 251 251 251 250 249 249 248 247 246 245 244 244 243 243 242 241 241 242 241 239 238 238 239 240 240 239 239 239 240 240 239 238 238 240 241 240 241 242 243 240 239 240 242 242 242
305 309 311 312 314 315 316 317 318 322 327 326 323 322 324 323 314 292 268 255 249 245 243 242 245 250 256 260 262 265 266 267 265 263 262 259 257 255 253 252 251 251 252 252 252 251 250 249 248 248 247 246 245 245 245 243 242 242 242 242 240 238 237 238 240 240 239 239 239 240 239 237 237 237 239 241 241 241 242 241 238 238 240 242 242
307 309 309 310 311 315 318 319 320 325 331 329 327 328 330 329 323 306 281 261 252 247 244 245 250 257 261 261 262 268 274 275 271 269 267 264 260 258 256 254 252 251 251 251 252 253 254 253 253 252 250 249 247 246 246 245 243 242 241 242 242 240 237 236 237 238 239 238 238 238 237 235 235 236 236 238 240 240 240 240 239 237 238 240 242
305 306 307 308 308 312 319 321 322 328 333 331 330 332 333 334 334 323 300 274 260 253 249 251 257 265 265 262 263 271 280 283 280 275 271 267 264 262 260 256 253 251 251 251 251 253 255 257 258 258 257 254 251 249 247 245 243 241 240 240 241 241 239 237 236 237 238 238 238 238 237 236 236 237 236 237 239 239 238 240 242 240 240 241 241
303 302 304 306 306 311 318 321 323 329 334 333 334 336 335 337 343 337 315 288 270 262 259 262 268 273 270 265 267 273 280 283 283 280 275 270 266 265 266 263 258 254 252 252 252 253 254 257 259 260 261 260 256 252 249 247 244 242 239 238 238 240 241 239 237 235 236 237 237 237 237 237 237 237 236 238 241 240 238 239 242 243 244 245 243
305 301 302 304 305 309 317 321 323 330 335 336 337 339 338 339 345 343 324 297 276 266 265 270 274 276 274 269 270 274 278 283 285 284 282 279 273 269 269 268 263 258 255 253 252 254 256 260 262 263 264 265 262 256 252 249 247 244 241 239 237 237 239 239 239 237 235 235 236 236 236 236 236 237 236 237 240 240 237 237 239 240 242 245 245
309 303 302 303 305 307 314 320 324 328 334 338 340 342 342 342 346 344 329 306 283 268 264 267 271 275 277 277 278 279 281 285 289 291 292 291 287 283 279 274 269 265 264 262 261 263 266 268 269 268 267 267 267 263 257 252 250 247 243 240 238 236 236 237 238 238 237 236 235 236 236 235 235 236 236 237 239 240 238 237 238 238 239 245 246
312 307 303 303 304 305 310 318 324 327 332 339 344 345 345 345 347 346 335 317 294 276 268 268 271 276 280 283 285 286 286 287 290 293 295 297 298 296 292 286 280 277 276 276 274 274 275 275 273 271 269 267 267 266 263 258 253 250 246 242 238 237 237 238 237 237 237 237 236 236 236 237 235 235 235 236 238 240 240 239 239 237 238 244 249
311 310 308 305 304 305 307 315 323 326 330 339 346 348 348 349 350 349 341 329 310 287 275 272 274 279 283 286 289 290 291 292 292 293 294 296 298 300 298 294 290 287 287 287 286 285 283 280 276 273 271 268 265 263 263 260 256 251 247 243 239 238 238 238 237 236 236 237 237 237 237 238 238 237 236 235 236 239 241 241 240 238 237 242 248
310 310 311 308 306 305 305 311 321 325 329 337 345 349 351 353 354 351 343 334 326 310 291 282 281 283 286 289 291 293 293 294 295 295 295 296 297 300 301 300 296 292 291 291 291 290 288 284 281 277 274 269 263 258 257 257 255 251 246 242 240 239 238 238 237 236 235 235 235 237 239 240 241 241 240 239 237 237 239 240 240 239 238 240 245
317 312 311 310 309 306 305 311 319 324 326 332 341 347 351 355 359 358 349 339 332 325 315 303 295 293 293 293 295 295 294 294 295 296 296 296 297 299 301 301 297 293 292 291 291 291 290 287 285 282 279 274 266 258 254 252 251 248 245 242 240 239 238 239 238 237 237 236 235 236 238 239 240 240 241 241 241 239 239 239 240 239 238 238 241
329 321 314 310 309 308 307 310 317 321 324 327 334 340 345 352 0 6 4 357 348 340 333 325 315 309 306 303 301 299 297 296 296 296 296 296 297 299 299 298 295 291 289 289 288 289 288 288 286 284 282 280 274 266 261 256 252 247 244 241 240 239 238 238 237 237 238 239 240 240 240 242 243 243 243 243 243 241 240 240 240 239 238 238 240
339 335 326 314 308 307 308 310 313 317 321 322 324 328 334 341 350 358 4 6 5 2 355 345 333 323 314 310 308 307 306 305 303 301 300 298 298 299 300 300 299 294 290 287 285 282 280 280 281 281 281 280 278 273 269 265 260 255 249 243 239 238 236 235 236 236 238 239 241 242 243 245 247 247 246 246 246 244 242 240 240 239 239 239 240
345 344 340 328 314 308 307 309 311 313 317 318 317 317 322 327 333 338 344 351 357 1 2 358 351 343 334 327 324 322 322 322 319 313 308 304 303 302 302 303 303 299 295 291 288 286 283 278 274 273 274 276 277 277 274 271 268 264 259 252 245 240 236 235 235 236 237 238 239 241 243 245 246 246 245 246 246 246 245 244 242 240 240 241 241
349 348 347 341 330 320 313 311 311 311 313 314 313 311 312 315 320 322 325 330 335 339 344 347 348 348 345 344 345 347 346 345 340 334 325 315 309 305 303 302 302 299 296 294 291 290 290 288 284 279 275 275 278 280 280 278 275 271 266 261 255 249 243 239 238 237 237 237 237 238 240 242 243 242 240 241 243 244 244 244 242 240 240 240 240
Height
5741 5740 5741 5741 5741 5742 5742 5742 5742 5743 5744 5744 5743 5744 5744 5744 5745 5748 5750 5751 5753 5755 5756 5757 5758 5760 5762 5764 5768 5771 5773 5775 5779 5783 5786 5788 5790 5791 5794 5796 5799 5802 5805 5807 5809 5810 5813 5815 5818 5820 5820 5822 5824 5827 5829 5830 5831 5833 5835 5837 5839 5839 5840 5840 5841 5841 5841 5841 5843 5845 5846 5848 5848 5849 5849 5848 5849 5849 5849 5850 5850 5850 5850 5850 5850
5740 5739 5739 5739 5738 5739 5739 5739 5739 5740 5741 5741 5741 5741 5741 5741 5742 5744 5746 5747 5748 5751 5753 5753 5756 5759 5761 5763 5766 5768 5770 5773 5776 5780 5783 5786 5788 5789 5791 5794 5796 5799 5801 5804 5806 5807 5810 5812 5815 5817 5817 5819 5822 5824 5826 5827 5829 5831 5833 5835 5837 5838 5838 5839 5839 5840 5840 5840 5841 5843 5845 5846 5847 5848 5848 5848 5848 5848 5849 5849 5850 5850 5850 5850 5850
5739 5738 5737 5737 5736 5736 5736 5736 5736 5737 5737 5737 5738 5738 5738 5738 5739 5741 5743 5742 5744 5748 5750 5752 5755 5758 5760 5762 5765 5766 5769 5771 5773 5776 5780 5783 5786 5788 5789 5791 5794 5796 5798 5801 5803 5805 5807 5810 5812 5814 5815 5817 5820 5822 5823 5825 5827 5830 5832 5833 5835 5836 5837 5838 5838 5839 5840 5839 5840 5842 5843 5844 5845 5846 5847 5847 5847 5848 5849 5849 5850 5850 5850 5850 5850
5738 5737 5736 5735 5734 5734 5733 5733 5734 5734 5734 5734 5734 5735 5736 5736 5736 5738 5739 5739 5741 5744 5748 5751 5753 5755 5757 5760 5762 5765 5768 5769 5771 5773 5777 5779 5783 5786 5788 5789 5790 5793 5795 5798 5800 5802 5805 5806 5808 5810 5812 5815 5818 5820 5822 5824 5825 5828 5830 5832 5833 5835 5836 5837 5837 5838 5839 5839 5839 5840 5842 5843 5844 5845 5846 5847 5847 5848 5848 5849 5849 5850 5850 5849 5849
5735 5735 5734 5733 5732 5732 5732 5731 5731 5731 5731 5731 5731 5731 5732 5733 5733 5735 5735 5736 5738 5740 5743 5746 5749 5751 5754 5756 5759 5762 5765 5768 5769 5771 5774 5777 5779 5782 5785 5786 5787 5789 5792 5794 5796 5799 5801 5804 5805 5808 5810 5813 5816 5819 5821 5822 5824 5826 5828 5830 5832 5833 5835 5835 5836 5837 5837 5838 5838 5839 5840 5841 5843 5844 5845 5846 5847 5847 5848 5848 5848 5849 5849 5849 5849
5734 5734 5733 5732 5731 5731 5730 5729 5729 5729 5729 5728 5728 5728 5729 5729 5730 5731 5732 5733 5734 5736 5739 5742 5745 5748 5751 5753 5756 5759 5762 5764 5766 5768 5771 5773 5776 5778 5780 5782 5783 5785 5788 5791 5793 5795 5798 5800 5802 5805 5808 5810 5813 5815 5818 5820 5822 5824 5826 5828 5829 5831 5833 5834 5836 5836 5836 5837 5837 5837 5838 5840 5841 5842 5844 5845 5846 5847 5847 5848 5848 5848 5849 5849 5848
5732 5732 5731 5731 5730 5730 5729 5728 5727 5726 5726 5725 5725 5725 5726 5726 5726 5728 5729 5730 5731 5732 5735 5739 5742 5745 5748 5751 5754 5756 5758 5760 5762 5764 5766 5768 5771 5773 5776 5778 5780 5782 5785 5787 5789 5791 5794 5796 5799 5802 5805 5807 5809 5812 5815 5817 5819 5821 5823 5825 5827 5828 5831 5832 5834 5835 5835 5836 5836 5836 5837 5838 5839 5841 5842 5844 5845 5846 5847 5847 5848 5848 5848 5848 5848
5731 5730 5730 5729 5729 5728 5727 5727 5725 5724 5724 5723 5722 5722 5722 5723 5723 5724 5725 5726 5728 5729 5731 5735 5739 5742 5745 5749 5751 5752 5755 5758 5759 5762 5763 5764 5767 5770 5772 5775 5776 5779 5782 5784 5786 5788 5791 5793 5796 5799 5803 5805 5807 5809 5812 5815 5816 5819 5821 5822 5824 5826 5828 5830 5831 5833 5834 5834 5834 5835 5835 5837 5838 5839 5841 5842 5844 5845 5845 5846 5847 5847 5847 5847 5847
5730 5729 5728 5727 5726 5726 5725 5724 5723 5722 5721 5720 5720 5719 5719 5719 5720 5721 5722 5723 5724 5726 5728 5731 5735 5739 5742 5745 5747 5749 5752 5755 5757 5759 5761 5763 5765 5767 5769 5771 5773 5776 5779 5781 5784 5786 5788 5791 5794 5797 5800 5803 5805 5807 5810 5813 5815 5818 5820 5821 5822 5824 5826 5827 5829 5830 5831 5832 5832 5833 5834 5835 5836 5838 5839 5840 5842 5843 5844 5845 5845 5846 5846 5846 5846
5729 5728 5727 5726 5725 5724 5723 5722 5721 5720 5718 5717 5717 5717 5717 5716 5716 5717 5718 5719 5721 5722 5725 5728 5731 5734 5738 5742 5744 5746 5750 5753 5755 5758 5760 5762 5763 5765 5767 5769 5771 5774 5776 5779 5781 5784 5786 5789 5792 5795 5797 5799 5802 5805 5807 5810 5813 5816 5818 5820 5821 5823 5824 5826 5827 5828 5829 5830 5830 5831 5832 5834 5835 5836 5837 5839 5840 5841 5843 5843 5844 5844 5845 5845 5846
5728 5727 5726 5725 5723 5722 5720 5719 5718 5717 5716 5714 5713 5713 5714 5714 5713 5714 5715 5716 5718 5719 5721 5724 5727 5730 5734 5738 5741 5743 5747 5750 5752 5755 5757 5759 5761 5763 5765 5767 5769 5771 5774 5776 5779 5781 5784 5786 5789 5792 5794 5797 5799 5802 5805 5808 5811 5814 5816 5818 5820 5822 5823 5824 5825 5826 5827 5828 5829 5830 5831 5832 5833 5834 5836 5837 5838 5840 5841 5842 5843 5843 5844 5844 5844
5726 5725 5725 5723 5721 5720 5718 5717 5716 5715 5714 5712 5711 5710 5711 5711 5711 5711 5712 5713 5714 5716 5718 5721 5723 5726 5730 5734 5737 5740 5743 5746 5749 5751 5754 5756 5758 5760 5763 5765 5767 5768 5771 5774 5776 5779 5781 5784 5786 5789 5792 5794 5796 5799 5802 5805 5808 5810 5813 5815 5816 5818 5820 5822 5823 5824 5826 5827 5828 5828 5829 5829 5831 5832 5833 5835 5837 5838 5840 5841 5841 5842 5842 5843 5843
5724 5723 5722 5720 5719 5717 5715 5714 5713 5713 5711 5710 5709 5708 5708 5708 5708 5708 5709 5710 5711 5712 5715 5717 5720 5722 5726 5729 5733 5737 5740 5743 5745 5748 5751 5753 5755 5757 5759 5761 5763 5765 5768 5771 5774 5776 5779 5781 5783 5786 5788 5791 5793 5795 5798 5801 5804 5807 5809 5811 5813 5814 5816 5818 5820 5821 5823 5825 5826 5826 5826 5827 5828 5829 5831 5833 5835 5837 5838 5839 5840 5840 5841 5842 5842
5721 5720 5719 5717 5716 5714 5713 5711 5710 5710 5709 5708 5708 5707 5706 5706 5706 5706 5706 5707 5708 5709 5711 5714 5717 5719 5722 5725 5729 5732 5736 5739 5742 5744 5747 5750 5752 5754 5756 5758 5759 5762 5764 5767 5770 5773 5776 5778 5780 5782 5785 5787 5790 5793 5795 5798 5801 5804 5806 5809 5811 5812 5813 5814 5816 5817 5820 5822 5823 5824 5825 5825 5826 5827 5829 5831 5833 5835 5836 5837 5838 5839 5840 5840 5841
5717 5716 5715 5714 5712 5711 5710 5709 5707 5707 5707 5706 5705 5705 5704 5704 5704 5704 5704 5705 5706 5707 5709 5711 5714 5716 5718 5721 5725 5728 5731 5735 5738 5740 5743 5746 5748 5750 5753 5754 5756 5758 5760 5763 5766 5770 5773 5775 5778 5780 5782 5784 5787 5790 5792 5795 5798 5800 5803 5806 5808 5810 5811 5813 5814 5815 5816 5818 5820 5822 5824 5824 5824 5824 5826 5828 5831 5832 5833 5835 5836 5837 5838 5839 5840
5714 5713 5711 5710 5708 5707 5706 5705 5704 5703 5703 5703 5703 5702 5701 5701 5701 5701 5702 5702 5703 5704 5706 5708 5711 5713 5716 5718 5721 5725 5728 5731 5734 5736 5739 5742 5744 5747 5749 5751 5753 5754 5757 5760 5763 5767 5770 5772 5775 5777 5780 5782 5784 5786 5788 5791 5794 5797 5800 5803 5806 5807 5809 5810 5811 5813 5814 5814 5816 5819 5822 5822 5821 5822 5823 5825 5828 5830 5831 5833 5834 5835 5836 5837 5838
5712 5710 5709 5707 5705 5704 5703 5702 5701 5700 5700 5700 5699 5699 5699 5699 5699 5699 5700 5700 5701 5702 5703 5705 5707 5710 5712 5715 5718 5721 5724 5727 5730 5732 5735 5738 5741 5743 5746 5748 5750 5752 5754 5757 5760 5763 5767 5769 5771 5774 5777 5779 5781 5783 5785 5787 5790 5793 5796 5800 5803 5804 5806 5807 5808 5810 5811 5811 5812 5815 5819 5820 5819 5819 5821 5823 5825 5827 5829 5831 5832 5833 5835 5836 5837
5709 5708 5707 5705 5703 5702 5701 5700 5699 5698 5697 5696 5696 5696 5697 5697 5697 5697 5698 5698 5699 5700 5701 5702 5704 5706 5709 5712 5714 5717 5720 5723 5726 5728 5731 5734 5737 5740 5742 5745 5747 5749 5751 5754 5757 5760 5763 5765 5768 5770 5772 5776 5779 5781 5783 5784 5786 5789 5793 5796 5799 5801 5803 5805 5806 5807 5808 5808 5808 5811 5815 5818 5818 5818 5818 5820 5822 5824 5826 5828 5830 5831 5833 5834 5835
5708 5707 5706 5704 5702 5701 5699 5697 5696 5695 5694 5694 5693 5694 5694 5695 5695 5695 5696 5696 5697 5698 5699 5700 5701 5703 5705 5708 5710 5713 5716 5719 5722 5724 5727 5730 5733 5736 5738 5741 5743 5745 5748 5750 5752 5755 5758 5761 5764 5766 5768 5771 5775 5778 5780 5781 5783 5786 5789 5791 5794 5797 5800 5802 5803 5804 5805 5804 5804 5807 5812 5816 5817 5816 5816 5817 5819 5821 5823 5825 5827 5828 5830 5831 5832
5708 5707 5705 5702 5700 5699 5697 5695 5693 5692 5691 5691 5690 5691 5691 5692 5692 5693 5693 5694 5695 5696 5696 5697 5698 5699 5701 5704 5706 5709 5712 5715 5718 5721 5723 5726 5729 5732 5734 5737 5739 5741 5743 5746 5748 5751 5753 5756 5759 5761 5764 5767 5771 5773 5776 5777 5779 5782 5784 5786 5789 5792 5796 5798 5799 5799 5799 5799 5801 5804 5808 5813 5814 5814 5814 5815 5816 5818 5820 5821 5823 5825 5827 5828 5830
5706 5704 5702 5700 5698 5697 5695 5693 5691 5690 5689 5688 5687 5688 5688 5689 5690 5690 5691 5692 5692 5693 5694 5695 5695 5696 5698 5700 5702 5704 5707 5710 5713 5716 5719 5722 5724 5727 5730 5732 5734 5737 5739 5742 5744 5746 5749 5752 5755 5758 5760 5763 5766 5770 5772 5774 5776 5778 5780 5782 5784 5787 5792 5795 5795 5795 5794 5794 5796 5799 5804 5807 5810 5811 5812 5812 5814 5815 5817 5818 5820 5822 5824 5825 5826
5703 5701 5699 5698 5696 5695 5693 5691 5689 5687 5686 5685 5685 5684 5685 5686 5687 5687 5688 5689 5690 5690 5691 5692 5693 5694 5695 5696 5698 5700 5703 5706 5708 5711 5714 5717 5720 5722 5725 5728 5730 5732 5735 5737 5740 5742 5745 5748 5751 5754 5757 5759 5762 5766 5769 5771 5773 5774 5777 5779 5781 5784 5788 5792 5794 5793 5791 5789 5790 5794 5798 5802 5804 5806 5807 5809 5811 5812 5814 5815 5817 5819 5821 5822 5823
5700 5698 5697 5696 5694 5693 5691 5689 5687 5685 5684 5683 5682 5681 5682 5682 5683 5684 5685 5686 5687 5687 5688 5689 5690 5691 5693 5694 5695 5697 5699 5702 5704 5707 5709 5712 5715 5718 5721 5723 5726 5728 5730 5733 5736 5738 5740 5743 5747 5750 5753 5755 5758 5761 5765 5767 5769 5770 5773 5777 5779 5781 5785 5789 5791 5791 5789 5788 5788 5789 5793 5797 5799 5801 5803 5805 5807 5808 5810 5812 5814 5815 5817 5819 5820
5698 5696 5695 5694 5692 5691 5689 5687 5685 5683 5682 5680 5679 5678 5678 5679 5679 5681 5682 5683 5684 5684 5685 5686 5687 5689 5690 5692 5693 5695 5696 5698 5700 5702 5705 5707 5710 5713 5716 5719 5721 5724 5726 5728 5731 5734 5736 5739 5742 5745 5748 5751 5753 5756 5759 5761 5764 5766 5770 5773 5776 5778 5781 5785 5787 5787 5786 5787 5787 5788 5790 5792 5794 5797 5799 5800 5802 5804 5806 5809 5810 5812 5813 5815 5816
5695 5694 5693 5692 5690 5689 5687 5685 5683 5681 5679 5678 5676 5675 5675 5675 5675 5676 5678 5679 5680 5681 5682 5683 5684 5686 5687 5689 5690 5692 5694 5695 5697 5699 5700 5702 5705 5708 5710 5713 5716 5719 5721 5724 5727 5729 5732 5734 5737 5740 5744 5747 5750 5751 5753 5756 5758 5762 5765 5768 5770 5773 5776 5779 5781 5783 5783 5784 5786 5787 5788 5788 5789 5792 5794 5796 5798 5800 5801 5804 5806 5808 5809 5811 5811
5693 5692 5691 5690 5688 5687 5685 5683 5681 5679 5677 5675 5674 5672 5671 5671 5672 5672 5673 5675 5676 5678 5679 5681 5682 5683 5684 5686 5687 5689 5690 5692 5694 5695 5697 5699 5701 5703 5705 5708 5711 5714 5716 5718 5721 5724 5727 5730 5732 5735 5739 5743 5745 5747 5749 5751 5753 5757 5760 5763 5765 5767 5771 5774 5776 5779 5780 5781 5783 5785 5786 5786 5786 5788 5790 5792 5794 5795 5797 5799 5801 5803 5805 5806 5807
5691 5690 5689 5687 5686 5685 5683 5681 5679 5677 5675 5673 5671 5670 5668 5668 5668 5668 5669 5671 5672 5674 5676 5677 5678 5680 5681 5683 5684 5686 5687 5689 5690 5692 5694 5695 5697 5699 5701 5703 5705 5708 5711 5713 5716 5719 5722 5725 5728 5730 5733 5737 5740 5742 5744 5746 5749 5751 5755 5758 5760 5763 5767 5769 5772 5775 5776 5777 5779 5781 5782 5783 5784 5785 5786 5787 5789 5791 5793 5795 5797 5799 5800 5801 5802
5689 5688 5687 5685 5684 5683 5681 5679 5677 5675 5673 5671 5669 5667 5666 5665 5664 5665 5666 5667 5668 5670 5672 5674 5675 5677 5678 5679 5681 5682 5684 5685 5687 5689 5690 5692 5693 5695 5697 5699 5701 5703 5706 5708 5711 5713 5716 5719 5723 5725 5728 5731 5735 5738 5740 5742 5744 5746 5749 5753 5756 5759 5762 5764 5766 5769 5771 5772 5774 5775 5776 5778 5779 5781 5782 5783 5784 5786 5788 5790 5792 5794 5795 5796 5798
5687 5686 5685 5684 5682 5681 5679 5677 5675 5673 5671 5669 5667 5665 5663 5662 5662 5662 5662 5663 5664 5665 5667 5669 5671 5673 5674 5676 5677 5679 5680 5682 5683 5685 5686 5688 5690 5691 5693 5695 5697 5699 5701 5703 5705 5708 5710 5713 5717 5720 5723 5725 5729 5732 5734 5736 5738 5740 5743 5746 5749 5753 5756 5757 5759 5762 5765 5766 5768 5769 5770 5771 5773 5775 5777 5778 5780 5781 5783 5785 5787 5788 5789 5791 5793
5685 5684 5683 5681 5680 5678 5677 5675 5673 5671 5669 5667 5665 5663 5661 5660 5660 5659 5659 5660 5660 5661 5663 5665 5667 5669 5671 5672 5674 5675 5677 5678 5679 5681 5683 5684 5686 5687 5689 5691 5692 5694 5696 5698 5700 5702 5704 5707 5710 5713 5717 5719 5722 5725 5727 5730 5732 5733 5736 5739 5742 5745 5748 5750 5751 5754 5757 5760 5762 5764 5765 5766 5766 5768 5770 5772 5775 5776 5778 5780 5781 5782 5783 5785 5787
5683 5682 5681 5679 5677 5676 5675 5673 5671 5669 5667 5665 5663 5661 5659 5658 5658 5657 5657 5657 5658 5658 5660 5661 5663 5665 5667 5668 5670 5671 5672 5674 5675 5677 5678 5680 5681 5683 5684 5686 5687 5689 5691 5693 5695 5697 5699 5701 5703 5706 5709 5712 5715 5718 5720 5722 5724 5726 5728 5731 5734 5737 5740 5742 5744 5747 5750 5753 5756 5758 5760 5761 5762 5763 5765 5767 5769 5771 5772 5774 5775 5776 5778 5780 5781
5681 5680 5678 5677 5675 5674 5672 5670 5669 5667 5665 5663 5661 5659 5658 5657 5656 5655 5655 5655 5656 5656 5657 5658 5659 5661 5663 5664 5666 5667 5668 5670 5671 5673 5674 5675 5677 5678 5679 5681 5682 5684 5686 5688 5690 5691 5693 5695 5696 5699 5702 5705 5707 5710 5712 5714 5716 5718 5720 5722 5725 5728 5730 5733 5737 5740 5743 5746 5749 5751 5753 5755 5757 5758 5760 5762 5764 5765 5767 5768 5769 5770 5772 5774 5776
5679 5678 5676 5675 5673 5671 5669 5668 5667 5665 5664 5662 5660 5658 5656 5655 5654 5654 5654 5654 5654 5655 5655 5656 5657 5658 5659 5661 5662 5663 5664 5665 5667 5668 5669 5671 5672 5674 5675 5676 5677 5679 5680 5682 5684 5686 5688 5689 5691 5693 5695 5698 5700 5702 5704 5707 5709 5710 5712 5713 5715 5718 5722 5725 5728 5732 5735 5739 5741 5743 5745 5748 5750 5751 5753 5755 5758 5759 5761 5762 5763 5764 5766 5768 5770
5677 5676 5674 5673 5670 5668 5667 5665 5664 5663 5661 5660 5658 5656 5655 5653 5652 5652 5652 5652 5652 5653 5653 5654 5655 5656 5657 5658 5659 5660 5661 5662 5663 5664 5665 5666 5667 5668 5670 5671 5672 5673 5675 5676 5678 5680 5682 5683 5685 5687 5688 5691 5693 5695 5697 5699 5701 5703 5704 5704 5706 5709 5713 5716 5719 5723 5726 5729 5733 5735 5737 5740 5743 5745 5747 5749 5751 5753 5755 5756 5758 5759 5760 5762 5764
5675 5674 5672 5670 5668 5666 5665 5663 5662 5661 5659 5658 5656 5654 5653 5652 5650 5649 5649 5650 5650 5650 5651 5652 5653 5654 5655 5655 5656 5657 5658 5658 5659 5660 5661 5661 5662 5663 5664 5666 5667 5668 5669 5670 5671 5673 5675 5676 5678 5680 5681 5683 5685 5687 5689 5692 5694 5695 5696 5696 5697 5701 5705 5708 5711 5713 5716 5719 5723 5726 5728 5732 5735 5737 5739 5741 5743 5746 5748 5749 5751 5752 5754 5755 5757
5673 5671 5670 5668 5666 5664 5663 5661 5660 5658 5657 5656 5654 5652 5651 5649 5648 5647 5646 5647 5647 5648 5649 5649 5650 5651 5652 5653 5653 5654 5655 5655 5656 5656 5657 5657 5658 5658 5659 5660 5661 5662 5663 5664 5665 5666 5668 5670 5671 5672 5674 5675 5677 5678 5680 5683 5685 5686 5687 5688 5689 5693 5697 5699 5701 5704 5707 5709 5712 5716 5719 5723 5725 5727 5729 5731 5734 5737 5739 5741 5743 5745 5747 5749 5751
5671 5669 5667 5666 5664 5663 5661 5659 5658 5656 5655 5653 5652 5650 5648 5646 5645 5644 5643 5644 5644 5645 5646 5647 5648 5648 5649 5649 5650 5650 5651 5651 5652 5652 5652 5652 5653 5653 5654 5654 5655 5655 5656 5657 5658 5660 5661 5662 5664 5665 5666 5668 5669 5669 5671 5673 5675 5676 5677 5679 5682 5686 5689 5690 5692 5696 5698 5701 5703 5706 5710 5713 5716 5718 5720 5722 5725 5727 5729 5732 5734 5737 5740 5742 5744
5668 5667 5665 5664 5662 5661 5659 5657 5656 5654 5653 5651 5649 5647 5645 5643 5642 5641 5640 5641 5642 5642 5643 5644 5645 5645 5646 5646 5647 5647 5647 5647 5647 5648 5648 5648 5648 5648 5649 5649 5649 5649 5650 5651 5652 5653 5653 5654 5655 5656 5658 5659 5660 5661 5661 5663 5665 5666 5667 5670 5673 5676 5680 5681 5683 5687 5689 5692 5695 5697 5700 5704 5706 5709 5710 5713 5716 5718 5721 5723 5725 5728 5732 5735 5737
5666 5664 5663 5662 5661 5659 5657 5655 5654 5652 5650 5648 5646 5645 5643 5641 5639 5638 5638 5638 5639 5640 5640 5641 5642 5642 5643 5643 5643 5643 5643 5643 5644 5644 5644 5644 5644 5644 5644 5644 5644 5645 5645 5646 5646 5647 5647 5647 5648 5649 5650 5651 5651 5652 5652 5653 5655 5656 5658 5660 5663 5666 5670 5673 5675 5676 5678 5681 5685 5689 5692 5695 5698 5700 5701 5703 5705 5708 5711 5715 5717 5720 5724 5728 5730
5664 5662 5661 5660 5659 5657 5656 5654 5652 5650 5648 5646 5644 5642 5640 5638 5637 5636 5635 5636 5636 5637 5638 5638 5639 5639 5640 5640 5640 5640 5640 5640 5640 5641 5641 5641 5640 5640 5640 5640 5640 5640 5640 5641 5641 5641 5641 5641 5642 5642 5643 5643 5643 5643 5643 5643 5644 5645 5647 5649 5652 5656 5661 5664 5666 5667 5668 5672 5676 5680 5684 5688 5691 5693 5694 5695 5696 5700 5705 5708 5711 5714 5718 5722 5722
5662 5661 5659 5658 5657 5656 5654 5652 5650 5648 5647 5644 5642 5640 5638 5637 5635 5634 5634 5634 5634 5635 5636 5636 5636 5637 5637 5637 5638 5638 5638 5638 5638 5638 5638 5638 5637 5637 5636 5636 5636 5636 5636 5636 5636 5636 5636 5635 5636 5636 5636 5635 5635 5635 5634 5634 5636 5636 5637 5639 5642 5647 5653 5655 5656 5657 5659 5662 5667 5672 5676 5680 5683 5685 5687 5688 5688 5692 5697 5700 5703 5708 5712 5713 5713
5660 5659 5657 5656 5655 5654 5653 5651 5649 5647 5645 5643 5641 5639 5637 5635 5634 5633 5632 5632 5633 5633 5634 5634 5634 5635 5635 5635 5635 5636 5636 5636 5635 5635 5635 5634 5634 5634 5633 5633 5633 5633 5633 5632 5632 5631 5631 5630 5630 5629 5629 5629 5628 5628 5627 5627 5628 5629 5629 5631 5634 5639 5643 5645 5647 5650 5652 5655 5660 5663 5666 5670 5672 5675 5678 5680 5681 5683 5687 5690 5694 5699 5702 5702 5702
5658 5657 5655 5654 5653 5652 5651 5650 5648 5646 5644 5642 5640 5638 5636 5634 5633 5632 5631 5631 5631 5631 5632 5632 5632 5633 5633 5633 5634 5634 5633 5633 5633 5632 5632 5631 5631 5630 5630 5630 5630 5629 5629 5628 5627 5626 5625 5624 5624 5623 5623 5622 5622 5621 5621 5621 5621 5621 5622 5624 5628 5631 5633 5635 5639 5644 5648 5650 5653 5655 5657 5659 5662 5665 5668 5671 5674 5676 5679 5683 5687 5691 5693 5694 5694
5655 5654 5653 5652 5652 5651 5650 5648 5647 5645 5643 5641 5639 5637 5635 5633 5632 5631 5630 5630 5630 5629 5630 5630 5630 5630 5631 5631 5631 5631 5631 5630 5630 5629 5629 5628 5628 5627 5627 5626 5626 5625 5624 5623 5622 5621 5619 5619 5618 5618 5617 5617 5616 5615 5615 5615 5614 5615 5616 5618 5621 5624 5626 5628 5632 5637 5641 5643 5645 5646 5648 5650 5652 5655 5659 5662 5665 5668 5672 5677 5681 5684 5686 5687 5688
5653 5652 5651 5650 5650 5649 5648 5647 5646 5644 5642 5641 5639 5637 5635 5633 5631 5630 5629 5629 5628 5628 5628 5628 5628 5628 5628 5628 5628 5628 5627 5627 5627 5626 5625 5625 5625 5624 5624 5623 5622 5621 5620 5619 5618 5617 5615 5615 5614 5613 5613 5612 5611 5610 5610 5610 5609 5609 5610 5612 5614 5617 5619 5622 5626 5630 5633 5635 5637 5639 5641 5642 5644 5646 5649 5652 5656 5661 5665 5669 5673 5675 5677 5679 5681
5651 5651 5650 5649 5648 5647 5646 5646 5645 5643 5641 5640 5638 5637 5635 5633 5631 5629 5628 5628 5627 5626 5626 5626 5626 5626 5625 5625 5625 5625 5624 5624 5623 5623 5622 5622 5621 5621 5620 5619 5618 5617 5616 5615 5615 5614 5613 5612 5611 5610 5609 5608 5607 5607 5606 5606 5606 5605 5606 5607 5609 5612 5614 5616 5620 5624 5626 5627 5630 5633 5635 5637 5639 5641 5643 5645 5649 5654 5658 5661 5664 5667 5669 5672 5674
5650 5649 5648 5647 5646 5645 5645 5644 5643 5642 5640 5639 5638 5637 5635 5633 5631 5629 5628 5627 5626 5625 5625 5624 5624 5624 5623 5623 5623 5622 5622 5621 5621 5620 5620 5619 5618 5618 5617 5617 5615 5614 5613 5612 5612 5611 5610 5609 5608 5607 5607 5605 5604 5604 5603 5603 5602 5602 5602 5603 5605 5607 5609 5612 5615 5618 5619 5621 5623 5625 5627 5630 5632 5635 5637 5640 5644 5648 5650 5653 5656 5659 5662 5664 5666
5648 5647 5647 5646 5644 5644 5643 5642 5642 5641 5639 5638 5637 5636 5635 5633 5631 5630 5628 5627 5626 5625 5624 5623 5623 5622 5621 5621 5621 5620 5620 5619 5618 5618 5617 5616 5616 5615 5614 5614 5613 5612 5611 5610 5609 5609 5608 5607 5606 5605 5604 5603 5602 5601 5600 5599 5599 5598 5598 5599 5601 5602 5604 5607 5609 5611 5614 5616 5618 5619 5621 5624 5626 5629 5632 5635 5638 5641 5643 5646 5648 5651 5654 5656 5658
5647 5646 5645 5644 5643 5642 5641 5641 5640 5639 5638 5637 5636 5635 5634 5633 5632 5630 5629 5628 5626 5625 5624 5623 5622 5621 5620 5619 5619 5618 5617 5617 5616 5615 5614 5614 5613 5612 5611 5611 5610 5609 5609 5608 5607 5607 5606 5605 5604 5603 5602 5601 5600 5599 5598 5597 5596 5596 5595 5595 5596 5597 5599 5601 5603 5605 5608 5610 5613 5615 5617 5620 5622 5625 5627 5629 5632 5634 5636 5639 5641 5644 5647 5649 5651
5646 5645 5644 5643 5642 5641 5640 5639 5638 5637 5637 5636 5635 5634 5633 5632 5632 5630 5629 5628 5626 5625 5624 5623 5622 5621 5619 5618 5617 5616 5615 5615 5614 5613 5612 5611 5610 5609 5608 5608 5607 5607 5606 5605 5604 5604 5603 5602 5602 5601 5599 5598 5597 5597 5596 5595 5594 5593 5593 5592 5592 5593 5594 5595 5597 5599 5601 5604 5607 5609 5612 5614 5617 5618 5619 5621 5623 5625 5629 5632 5635 5637 5640 5642 5645
5646 5644 5643 5641 5640 5639 5638 5637 5637 5636 5635 5634 5633 5633 5632 5631 5630 5629 5628 5627 5626 5625 5624 5623 5622 5621 5620 5618 5617 5616 5614 5613 5612 5612 5611 5609 5608 5607 5606 5605 5604 5604 5603 5602 5601 5601 5600 5599 5598 5598 5597 5596 5595 5594 5593 5592 5591 5590 5590 5589 5589 5589 5590 5591 5592 5593 5596 5598 5600 5603 5606 5608 5609 5610 5610 5612 5615 5618 5621 5624 5626 5629 5632 5635 5637